This demonstration page uses our WeatherBlox Daily Observations layout. Learn more.

Left ArrowRight Arrow

40.92945, -100.16068

Hourly Observations for May 20, 2020

Temp ( °F °C ) Dew Point ( °F °C ) Humidity (%) Winds ( mph kmh ) Pressure ( in mb ) Visibility ( mi km ) Precip ( " mm )
12:15 am 00:15 Clear 55 12.9 51 10.5 85 85 SE 6 9 29.95 1014 10 16.0934 0 0
12:35 am 00:35 Clear 55 12.8 51 10.4 85 85 S 5 7 29.97 1015 10 16.0934 0 0
12:55 am 00:55 Clear 54 12.4 50 10 85 85 SE 6 9 29.96 1015 10 16.0934 0 0
1:15 am 01:15 Clear 53 11.7 50 9.9 89 89 ESE 8 13 29.97 1015 10 16.0934 0 0
1:35 am 01:35 Clear 54 12.1 50 10.2 88 88 SE 5 7 29.98 1015 10 16.0934 0 0
1:55 am 01:55 Clear 54 12 50 10.2 89 89 ESE 7 11 29.97 1015 10 16.0934 0 0
2:15 am 02:15 Clear 53 11.5 50 9.9 90 90 ESE 7 11 29.97 1015 10 16.0934 0 0
2:35 am 02:35 Clear 53 11.6 50 10 90 90 ESE 8 13 29.96 1014 10 16.0934 0 0
2:55 am 02:55 Clear 53 11.5 50 10 91 91 ESE 9 15 29.95 1014 10 16.0934 0 0
3:15 am 03:15 Clear 53 11.4 50 10 91 91 SE 7 11 29.95 1014 10 16.0934 0 0
3:35 am 03:35 Clear 52 11.1 50 9.8 92 92 ESE 8 13 29.95 1014 10 16.0934 0 0
3:55 am 03:55 Clear 51 10.8 49 9.7 93 93 ESE 9 15 29.93 1014 10 16.0934 0 0
4:15 am 04:15 Clear 52 10.9 50 9.8 93 93 SE 8 13 29.95 1014 10 16.0934 0 0
4:35 am 04:35 Clear 51 10.7 50 9.8 94 94 ESE 10 17 29.95 1014 7 11.26538 0 0
4:55 am 04:55 Clear 51 10.6 49 9.7 94 94 ESE 9 15 29.95 1014 7 11.26538 0 0
5:15 am 05:15 Clear 51 10.5 49 9.6 94 94 ESE 7 11 29.95 1014 7 11.26538 0 0
5:35 am 05:35 Clear with Mist and Fog 50 10.2 49 9.5 95 95 SE 8 13 29.96 1015 5 8.0467 0 0
5:55 am 05:55 Clear with Mist and Fog 50 10.1 49 9.5 96 96 SE 7 11 29.97 1015 5 8.0467 0 0
6:15 am 06:15 Clear with Mist and Fog 50 10.1 49 9.5 96 96 SE 7 11 29.97 1015 4 6.43736 0 0
6:35 am 06:35 Sunny with Mist and Fog 50 10 49 9.5 97 97 SE 8 13 29.98 1015 4 6.43736 0 0
6:55 am 06:55 Partly Cloudy with Mist and Fog 50 10 49 9.4 96 96 ESE 8 13 29.98 1015 4 6.43736 0 0
7:15 am 07:15 Mostly Cloudy with Mist and Fog 50 10.1 49 9.5 96 96 ESE 10 17 29.97 1015 4 6.43736 0 0
7:35 am 07:35 Cloudy with Mist and Fog 51 10.7 50 10 95 95 SSE 7 11 29.98 1015 4 6.43736 0 0
7:55 am 07:55 Cloudy with Mist and Fog 52 11.2 51 10.5 96 96 SE 8 13 29.98 1015 5 8.0467 0 0
8:15 am 08:15 Cloudy 53 11.7 51 10.7 94 94 SE 8 13 29.98 1015 7 11.26538 0 0
8:35 am 08:35 Cloudy 54 12 52 10.9 93 93 ESE 9 15 29.97 1015 7 11.26538 0 0
8:55 am 08:55 Cloudy 55 12.8 53 11.4 91 91 ESE 9 15 29.96 1014 7 11.26538 0 0
9:15 am 09:15 Cloudy 56 13.6 53 11.8 89 89 E 16 26 29.93 1013 10 16.0934 0 0
9:35 am 09:35 Cloudy 57 14.1 54 12 87 87 ESE 14 22 29.93 1014 10 16.0934 0 0
9:55 am 09:55 Cloudy 59 15.1 55 12.6 85 85 ESE 15 24 29.93 1014 10 16.0934 0 0
10:15 am 10:15 Cloudy 60 15.4 55 12.7 84 84 SE 10 17 29.93 1014 10 16.0934 0 0
10:35 am 10:35 Cloudy 61 16.1 55 12.6 80 80 SE 14 22 29.93 1013 10 16.0934 0 0
10:55 am 10:55 Mostly Cloudy 63 17.4 55 12.8 75 75 SSE 14 22 29.91 1013 10 16.0934 0 0
11:15 am 11:15 Partly Cloudy 65 18.3 55 13 71 71 SE 16 26 29.91 1013 10 16.0934 0 0
11:35 am 11:35 Partly Cloudy 66 18.7 55 12.7 68 68 SE 16 26 29.89 1012 10 16.0934 0 0
11:55 am 11:55 Partly Cloudy 67 19.5 55 13 66 66 SE 18 30 29.89 1012 10 16.0934 0 0
12:15 pm 12:15 Sunny 68 20 55 12.9 64 64 SSE 18 30 29.88 1012 10 16.0934 0 0
12:35 pm 12:35 Sunny 69 20.5 55 12.6 61 61 SE 17 28 29.88 1012 10 16.0934 0 0
12:55 pm 12:55 Sunny 70 21.2 56 13.2 60 60 SSE 15 24 29.85 1011 10 16.0934 0 0
1:15 pm 13:15 Sunny 71 21.8 56 13.5 59 59 SE 18 30 29.84 1010 10 16.0934 0 0
1:35 pm 13:35 Sunny 72 22.1 55 12.9 56 56 SSE 20 31 29.82 1010 10 16.0934 0 0
1:55 pm 13:55 Sunny 72 22.4 55 12.6 54 54 SE 20 31 29.82 1010 10 16.0934 0 0
2:15 pm 14:15 Sunny 73 22.8 55 12.5 52 52 SSE 21 33 29.81 1009 10 16.0934 0 0
2:35 pm 14:35 Sunny 73 23 54 12.1 50 50 SSE 21 33 29.8 1009 10 16.0934 0 0
2:55 pm 14:55 Sunny 74 23.5 55 12.6 50 50 SSE 20 31 29.78 1009 10 16.0934 0 0
3:15 pm 15:15 Sunny 74 23.5 54 12 49 49 SSE 21 33 29.78 1009 10 16.0934 0 0
3:35 pm 15:35 Sunny 75 23.8 54 12.2 48 48 SSE 21 33 29.77 1008 10 16.0934 0 0
3:55 pm 15:55 Sunny 75 24.1 54 12.1 47 47 SE 18 30 29.76 1008 10 16.0934 0 0
4:15 pm 16:15 Sunny 75 24.1 53 11.9 47 47 SSE 20 31 29.75 1007 10 16.0934 0 0
4:35 pm 16:35 Sunny 75 24 53 11.8 46 46 SSE 20 31 29.74 1007 10 16.0934 0 0
4:55 pm 16:55 Sunny 76 24.2 54 12 47 47 SSE 22 35 29.73 1007 10 16.0934 0 0
5:15 pm 17:15 Sunny 75 24.1 55 12.5 48 48 SSE 17 28 29.73 1007 10 16.0934 0 0
5:35 pm 17:35 Sunny 75 24.1 54 12 47 47 SE 22 35 29.73 1007 10 16.0934 0 0
5:55 pm 17:55 Sunny 75 24 54 12.1 47 47 SSE 21 33 29.72 1006 10 16.0934 0 0
6:15 pm 18:15 Sunny 75 23.8 53 11.8 47 47 SSE 23 37 29.72 1006 10 16.0934 0 0
6:35 pm 18:35 Sunny 74 23.6 53 11.9 48 48 SE 18 30 29.71 1006 10 16.0934 0 0
6:55 pm 18:55 Sunny 74 23.2 53 11.8 49 49 SE 20 31 29.72 1006 10 16.0934 0 0
7:15 pm 19:15 Sunny 73 22.7 53 11.5 49 49 SE 22 35 29.71 1006 10 16.0934 0 0
7:35 pm 19:35 Sunny 73 22.7 53 11.5 49 49 SE 20 31 29.71 1006 10 16.0934 0 0
7:55 pm 19:55 Sunny 72 22.4 53 11.8 51 51 SE 20 31 29.71 1006 10 16.0934 0 0
8:15 pm 20:15 Sunny 71 21.7 54 12 54 54 SE 16 26 29.73 1007 10 16.0934 0 0
8:35 pm 20:35 Sunny 70 21 54 12.1 57 57 SE 18 30 29.73 1007 10 16.0934 0 0
8:55 pm 20:55 Clear 69 20.5 54 12.2 59 59 SE 20 31 29.74 1007 10 16.0934 0 0
9:15 pm 21:15 Clear 68 20 54 12.1 61 61 SE 16 26 29.74 1007 10 16.0934 0 0
9:35 pm 21:35 Clear 67 19.6 54 12.3 63 63 SE 13 20 29.77 1008 10 16.0934 0 0
9:55 pm 21:55 Clear 66 19.1 55 12.6 66 66 SE 12 19 29.77 1008 10 16.0934 0 0
10:15 pm 22:15 Clear 65 18.6 55 13 70 70 SE 15 24 29.78 1009 10 16.0934 0 0
10:35 pm 22:35 Clear 64 17.9 55 12.9 73 73 SE 13 20 29.79 1009 10 16.0934 0 0
10:55 pm 22:55 Clear 64 17.5 55 12.8 74 74 SE 15 24 29.79 1009 10 16.0934 0 0
11:15 pm 23:15 Clear 63 17.2 55 12.7 75 75 SE 17 28 29.79 1009 10 16.0934 0 0
11:35 pm 23:35 Clear 62 16.7 55 12.6 77 77 SE 15 24 29.8 1009 10 16.0934 0 0
11:55 pm 23:55 Clear 61 16.3 55 12.6 79 79 SE 18 30 29.8 1009 10 16.0934 0 0

Powered by AerisWeather